Location: Wald
(31.7579°N, 86.6655°W)
Time: 00:48:20
(UTC+00:00)

Cosmos 1818 - Pass Details

Date: 14 July 2020
Orbit: 777 x 796 km, 65.0° (Epoch: 12 August)

Event Time Altitude Azimuth Distance (km) Brightness Sun altitude
Rises 09:45:45 0° 329° (NNW) 3,300 6.9 -12.8°
Reaches altitude 10° 09:48:12 10° 327° (NNW) 2,367 6.1 -12.4°
Maximum altitude 09:53:36 69° 245° (WSW) 846 3.5 -11.5°
Drops below altitude 10° 09:58:58 10° 163° (SSE) 2,347 5.9 -10.5°
Sets 10:01:23 0° 160° (SSE) 3,271 6.6 -10.1°
